| time (UTC) | temp F | wind direction | speed MPH | gust MPH | rain 1hr in | rain 24hr in | rain mn in | humidity % | barometer mb |
| 20260508064541 | 50 | 278 | 1.0 | 0.0 | 0.00 | 0.00 | 0.00 | 100 | 1011.6 |
| 20260508063039 | 50 | 254 | 0.0 | 0.0 | 0.00 | 0.00 | 0.00 | 100 | 1011.5 |
| 20260508061540 | 50 | 319 | 1.0 | 0.0 | 0.00 | 0.00 | 0.00 | 100 | 1011.4 |
| 20260508060028 | 50 | 300 | 1.0 | 0.0 | 0.00 | 0.00 | 0.00 | 100 | 1011.4 |
| 20260508054524 | 50 | 297 | 3.0 | 0.0 | 0.00 | 0.00 | 0.00 | 100 | 1011.3 |
| 20260508053022 | 50 | 276 | 2.0 | 0.0 | 0.00 | 0.00 | 0.00 | 100 | 1011.2 |
| 20260508051515 | 50 | 258 | 1.0 | 0.0 | 0.00 | 0.00 | 0.00 | 100 | 1011.1 |
| 20260508050010 | 51 | 286 | 1.0 | 0.0 | 0.00 | 0.00 | 0.00 | 100 | 1011.0 |
| 20260508044507 | 50 | 262 | 1.0 | 0.0 | 0.00 | 0.00 | 0.00 | 100 | 1011.0 |
| 20260508043004 | 51 | 249 | 1.0 | 0.0 | 0.00 | 0.00 | 0.00 | 100 | 1010.8 |
| 20260508041559 | 51 | 240 | 1.0 | 0.0 | 0.00 | 0.00 | 0.00 | 100 | 1010.7 |
| 20260508040058 | 51 | 273 | 2.0 | 0.0 | 0.00 | 0.00 | 0.00 | 100 | 1010.6 |
| 20260508034552 | 52 | 221 | 2.0 | 0.0 | 0.00 | 0.00 | 0.14 | 100 | 1010.5 |
| 20260508033054 | 52 | 221 | 2.0 | 0.0 | 0.00 | 0.00 | 0.14 | 100 | 1010.5 |
| 20260508031551 | 52 | 266 | 3.0 | 0.0 | 0.00 | 0.00 | 0.14 | 100 | 1010.5 |
| 20260508030036 | 52 | 217 | 2.0 | 0.0 | 0.00 | 0.00 | 0.14 | 100 | 1010.4 |
| 20260508024555 | 53 | 217 | 2.0 | 0.0 | 0.00 | 0.00 | 0.14 | 3 | 1010.4 |
| 20260508023027 | 53 | 203 | 3.0 | 0.0 | 0.00 | 0.00 | 0.14 | 8 | 1010.4 |
| 20260508021523 | 53 | 244 | 2.0 | 0.0 | 0.00 | 0.00 | 0.14 | 13 | 1010.3 |
| 20260508020018 | 53 | 217 | 2.0 | 0.0 | 0.00 | 0.00 | 0.14 | 25 | 1010.1 |
| 20260508014517 | 54 | 233 | 3.0 | 0.0 | 0.00 | 0.00 | 0.14 | 33 | 1010.1 |
| 20260508013013 | 55 | 196 | 3.0 | 0.0 | 0.00 | 0.00 | 0.14 | 42 | 1009.9 |
| 20260508011506 | 55 | 221 | 3.0 | 0.0 | 0.00 | 0.00 | 0.14 | 50 | 1009.8 |
| 20260508010002 | 56 | 201 | 4.0 | 0.0 | 0.00 | 0.00 | 0.14 | 55 | 1009.5 |
| 20260508004601 | 56 | 182 | 3.0 | 0.0 | 0.00 | 0.00 | 0.14 | 60 | 1009.1 |
| 20260508003054 | 56 | 175 | 2.0 | 0.0 | 0.00 | 0.00 | 0.14 | 62 | 1009.0 |
| 20260508001550 | 57 | 200 | 2.0 | 0.0 | 0.00 | 0.00 | 0.14 | 63 | 1009.0 |
| 20260508000043 | 57 | 181 | 2.0 | 0.0 | 0.00 | 0.00 | 0.14 | 63 | 1008.6 |
| 20260507234539 | 58 | 124 | 1.0 | 0.0 | 0.00 | 0.00 | 0.14 | 63 | 1008.3 |
| 20260507233035 | 59 | 186 | 2.0 | 0.0 | 0.00 | 0.00 | 0.14 | 62 | 1008.2 |
| 20260507231532 | 59 | 155 | 4.0 | 0.0 | 0.00 | 0.00 | 0.14 | 61 | 1008.0 |
| 20260507230026 | 60 | 170 | 3.0 | 0.0 | 0.00 | 0.00 | 0.14 | 60 | 1007.9 |
| 20260507224523 | 61 | 159 | 2.0 | 0.0 | 0.00 | 0.00 | 0.14 | 60 | 1007.6 |
| 20260507223018 | 62 | 175 | 2.0 | 0.0 | 0.00 | 0.00 | 0.14 | 59 | 1007.5 |
| 20260507221514 | 63 | 111 | 3.0 | 0.0 | 0.00 | 0.00 | 0.14 | 57 | 1007.5 |
| 20260507220012 | 64 | 162 | 2.0 | 0.0 | 0.00 | 0.00 | 0.14 | 55 | 1007.4 |
| 20260507214505 | 65 | 84 | 2.0 | 0.0 | 0.00 | 0.00 | 0.14 | 53 | 1007.4 |
| 20260507213101 | 66 | 181 | 1.0 | 0.0 | 0.00 | 0.00 | 0.14 | 51 | 1007.5 |
| 20260507211601 | 66 | 17 | 3.0 | 0.0 | 0.00 | 0.00 | 0.14 | 51 | 1007.4 |
| 20260507210106 | 68 | 46 | 4.0 | 0.0 | 0.00 | 0.00 | 0.14 | 42 | 1007.5 |
| 20260507204547 | 68 | 335 | 5.0 | 0.0 | 0.00 | 0.00 | 0.14 | 43 | 1007.3 |
| 20260507203109 | 66 | 355 | 4.0 | 0.0 | 0.00 | 0.00 | 0.14 | 43 | 1007.4 |
| 20260507201539 | 66 | 96 | 2.0 | 0.0 | 0.00 | 0.00 | 0.14 | 48 | 1007.2 |
| 20260507200035 | 65 | 194 | 2.0 | 0.0 | 0.00 | 0.00 | 0.14 | 49 | 1007.1 |
| 20260507194531 | 64 | 202 | 1.0 | 0.0 | 0.00 | 0.00 | 0.14 | 50 | 1007.7 |
| 20260507193026 | 64 | 183 | 4.0 | 0.0 | 0.00 | 0.00 | 0.14 | 50 | 1007.9 |
| 20260507191521 | 64 | 76 | 2.0 | 0.0 | 0.00 | 0.00 | 0.14 | 52 | 1008.4 |
| 20260507190016 | 63 | 121 | 2.0 | 0.0 | 0.00 | 0.00 | 0.14 | 51 | 1008.1 |
| 20260507184515 | 62 | 145 | 2.0 | 0.0 | 0.00 | 0.00 | 0.14 | 52 | 1008.5 |
| 20260507183012 | 62 | 188 | 2.0 | 0.0 | 0.00 | 0.00 | 0.14 | 53 | 1008.8 |
| 20260507181507 | 61 | 155 | 2.0 | 0.0 | 0.00 | 0.00 | 0.14 | 53 | 1008.9 |
| 20260507180100 | 60 | 346 | 2.0 | 0.0 | 0.00 | 0.00 | 0.14 | 54 | 1008.9 |
| 20260507174601 | 60 | 162 | 2.0 | 0.0 | 0.00 | 0.00 | 0.14 | 54 | 1009.4 |
| 20260507173124 | 60 | 81 | 3.0 | 0.0 | 0.00 | 0.00 | 0.14 | 56 | 1009.7 |
| 20260507171546 | 59 | 5 | 2.0 | 0.0 | 0.00 | 0.00 | 0.14 | 54 | 1010.0 |
| 20260507170041 | 58 | 282 | 2.0 | 0.0 | 0.00 | 0.00 | 0.14 | 56 | 1010.0 |
| 20260507164537 | 57 | 23 | 2.0 | 0.0 | 0.00 | 0.00 | 0.14 | 56 | 1010.2 |
| 20260507163035 | 57 | 40 | 2.0 | 0.0 | 0.00 | 0.00 | 0.14 | 58 | 1010.8 |
| 20260507161539 | 56 | 284 | 2.0 | 0.0 | 0.00 | 0.00 | 0.14 | 59 | 1010.9 |
| 20260507160024 | 56 | 355 | 3.0 | 0.0 | 0.00 | 0.00 | 0.14 | 60 | 1011.2 |
| 20260507154519 | 55 | 10 | 3.0 | 0.0 | 0.00 | 0.00 | 0.14 | 61 | 1011.3 |
| 20260507153015 | 55 | 343 | 1.0 | 0.0 | 0.00 | 0.00 | 0.14 | 59 | 1011.3 |
| 20260507151511 | 54 | 306 | 3.0 | 0.0 | 0.00 | 0.00 | 0.14 | 53 | 1011.4 |
| 20260507150008 | 53 | 33 | 3.0 | 0.0 | 0.00 | 0.00 | 0.14 | 41 | 1011.5 |
| 20260507144502 | 53 | 32 | 3.0 | 0.0 | 0.00 | 0.00 | 0.14 | 24 | 1011.7 |
| 20260507143103 | 53 | 17 | 2.0 | 0.0 | 0.00 | 0.00 | 0.14 | 100 | 1011.8 |
| 20260507141600 | 52 | 27 | 2.0 | 0.0 | 0.00 | 0.00 | 0.14 | 100 | 1011.9 |
| 20260507140050 | 52 | 325 | 2.0 | 0.0 | 0.00 | 0.00 | 0.14 | 100 | 1012.2 |
| 20260507134549 | 51 | 342 | 3.0 | 0.0 | 0.00 | 0.00 | 0.14 | 100 | 1012.1 |
| 20260507133108 | 51 | 329 | 3.0 | 0.0 | 0.00 | 0.00 | 0.14 | 100 | 1012.2 |
| 20260507131543 | 51 | 317 | 2.0 | 0.0 | 0.00 | 0.00 | 0.14 | 100 | 1012.2 |
| 20260507130036 | 51 | 340 | 3.0 | 0.0 | 0.00 | 0.00 | 0.14 | 100 | 1012.2 |
| 20260507124528 | 52 | 328 | 3.0 | 0.0 | 0.00 | 0.00 | 0.14 | 100 | 1012.0 |
| 20260507123034 | 53 | 355 | 2.0 | 0.0 | 0.00 | 0.00 | 0.14 | 100 | 1011.9 |
| 20260507121519 | 53 | 290 | 2.0 | 0.0 | 0.00 | 0.00 | 0.14 | 100 | 1011.9 |
| 20260507120014 | 54 | 9 | 2.0 | 0.0 | 0.00 | 0.00 | 0.14 | 100 | 1011.7 |
| 20260507114510 | 54 | 360 | 2.0 | 0.0 | 0.00 | 0.00 | 0.14 | 100 | 1011.7 |
| 20260507113010 | 54 | 342 | 0.0 | 0.0 | 0.00 | 0.00 | 0.14 | 100 | 1011.4 |
| 20260507111500 | 54 | 327 | 0.0 | 0.0 | 0.00 | 0.00 | 0.14 | 100 | 1011.7 |
| 20260507110100 | 54 | 333 | 0.0 | 0.0 | 0.00 | 0.00 | 0.14 | 100 | 1011.4 |
| 20260507104553 | 54 | 333 | 0.0 | 0.0 | 0.00 | 0.00 | 0.14 | 100 | 1011.4 |
| 20260507103054 | 54 | 333 | 0.0 | 0.0 | 0.00 | 0.00 | 0.14 | 100 | 1011.3 |
| 20260507101547 | 54 | 333 | 0.0 | 0.0 | 0.00 | 0.00 | 0.14 | 100 | 1011.0 |
| 20260507100039 | 54 | 333 | 0.0 | 0.0 | 0.00 | 0.00 | 0.13 | 100 | 1010.9 |
| 20260507094542 | 54 | 334 | 0.0 | 0.0 | 0.00 | 0.00 | 0.13 | 100 | 1010.9 |
| 20260507093030 | 54 | 334 | 0.0 | 0.0 | 0.00 | 0.00 | 0.13 | 100 | 1010.7 |
| 20260507091532 | 54 | 335 | 0.0 | 0.0 | 0.00 | 0.00 | 0.13 | 100 | 1010.9 |
| 20260507090021 | 54 | 334 | 0.0 | 0.0 | 0.00 | 0.00 | 0.13 | 100 | 1010.9 |
| 20260507084520 | 54 | 334 | 0.0 | 0.0 | 0.00 | 0.00 | 0.13 | 100 | 1010.4 |
| 20260507083013 | 54 | 334 | 1.0 | 0.0 | 0.00 | 0.00 | 0.13 | 100 | 1010.3 |
| 20260507081509 | 54 | 355 | 1.0 | 0.0 | 0.00 | 0.00 | 0.13 | 100 | 1010.0 |
| 20260507080005 | 54 | 342 | 3.0 | 0.0 | 0.00 | 0.00 | 0.13 | 100 | 1009.9 |
| 20260507074604 | 55 | 355 | 3.0 | 0.0 | 0.00 | 0.00 | 0.13 | 100 | 1009.9 |
| 20260507073107 | 55 | 9 | 4.0 | 0.0 | 0.00 | 0.00 | 0.13 | 100 | 1009.8 |
| 20260507071552 | 55 | 338 | 5.0 | 0.0 | 0.00 | 0.00 | 0.13 | 100 | 1009.7 |
| 20260507070056 | 56 | 341 | 4.0 | 0.0 | 0.00 | 0.00 | 0.13 | 100 | 1009.7 |